Weather History for Jasper, TX

Change the Weather History Date:

Wednesday, December 19, 2012

  Actual Average (KLFK) Record (KLFK)
Temperature  
Mean Temperature 70 °F 49 °F  
Max Temperature 80 °F 60 °F 81 °F (2012)
Min Temperature 61 °F 39 °F 16 °F (1929)
Degree Days  
Heating Degree Days 0 16  
Month to date heating degree days 274  
Since 1 July heating degree days 581  
Cooling Degree Days 6 0  
Month to date cooling degree days 4  
Year to date cooling degree days 2587  
Growing Degree Days 20 (Base 50)    
Moisture  
Dew Point 64 °F    
Average Humidity 81    
Maximum Humidity 91    
Minimum Humidity 61    
Precipitation  
Precipitation 0.00 in 0.14 in 2.27 in (1973)
Month to date precipitation 2.81  
Year to date precipitation 47.32  
Sea Level Pressure  
Sea Level Pressure 29.85 in    
Wind  
Wind Speed 8 mph (SSE)    
Max Wind Speed 17 mph    
Max Gust Speed 29 mph    
Visibility 10 miles    
Events Rain    
T = Trace of Precipitation, MM = Missing Value Source: NWS Daily Summary

Daily Weather History Graph

Daily Weather History Graph

Search for Another Location

Airport:

Trip Planner

Search our weather history database for the weather conditions in past years. The results will help you decide how hot, cold, wet, or windy it might be!

Date:

Astronomy

Dec. 19, 2012 Rise Set
Actual Time 7:09 AM CST 5:17 PM CST
Civil Twilight 6:42 AM CST 5:44 PM CST
Nautical Twilight 6:12 AM CST 6:14 PM CST
Astronomical Twilight 5:42 AM CST 6:44 PM CST
Moon 11:44 AM CST (12/19) No Moon Set
Length of Visible Light 11h 02m
Length of Day
10h 08m
Waxing Crescent, 45% of the Moon is Illuminated
Dec 19
Waxing Crescent
Dec 19
First Quarter
Dec 28
Full
Jan 4
Last Quarter
Jan 11
New

Hourly Weather History & Observations

Time (CST) Temp. Heat Index Dew Point Humidity Pressure Visibility Wind Dir Wind Speed Gust Speed Precip Events Conditions
12:15 AM 61.0 °F - 58.1 °F 90% 29.93 in 10.0 mi SSE 4.6 mph - N/A   Clear
12:35 AM 61.3 °F - 58.3 °F 90% 29.93 in 10.0 mi SSE 5.8 mph - N/A   Clear
12:55 AM 61.7 °F - 58.5 °F 89% 29.92 in 10.0 mi SSE 4.6 mph - N/A   Clear
1:15 AM 61.7 °F - 58.3 °F 89% 29.92 in 10.0 mi SSE 4.6 mph - N/A   Clear
1:35 AM 61.7 °F - 58.3 °F 89% 29.92 in 10.0 mi SSE 3.5 mph - N/A   Clear
1:55 AM 61.9 °F - 58.5 °F 89% 29.92 in 10.0 mi SSE 4.6 mph - N/A   Clear
2:15 AM 62.1 °F - 58.5 °F 88% 29.92 in 10.0 mi SSE 4.6 mph - N/A   Clear
2:35 AM 61.9 °F - 58.5 °F 89% 29.91 in 10.0 mi SSE 6.9 mph - N/A   Clear
2:55 AM 62.2 °F - 58.6 °F 88% 29.91 in 10.0 mi SSE 5.8 mph - N/A   Clear
3:15 AM 62.2 °F - 58.6 °F 88% 29.91 in 10.0 mi SSE 8.1 mph - N/A   Clear
3:35 AM 62.2 °F - 58.8 °F 89% 29.90 in 10.0 mi SSE 5.8 mph - N/A   Clear
3:55 AM 61.9 °F - 58.6 °F 89% 29.90 in 10.0 mi SSE 4.6 mph - N/A   Clear
4:15 AM 61.7 °F - 58.5 °F 89% 29.90 in 10.0 mi SE 4.6 mph - N/A   Clear
4:35 AM 61.7 °F - 58.5 °F 89% 29.89 in 10.0 mi SSE 4.6 mph - N/A   Clear
4:55 AM 61.7 °F - 58.5 °F 89% 29.89 in 10.0 mi SSE 6.9 mph - N/A   Clear
5:15 AM 61.9 °F - 58.6 °F 89% 29.89 in 10.0 mi SSE 4.6 mph - N/A   Clear
5:35 AM 61.9 °F - 58.6 °F 89% 29.89 in 10.0 mi SE 4.6 mph - N/A   Clear
5:55 AM 61.9 °F - 58.6 °F 89% 29.89 in 10.0 mi SSE 4.6 mph - N/A   Clear
6:15 AM 62.1 °F - 59.2 °F 90% 29.89 in 10.0 mi SSE 6.9 mph - N/A   Clear
6:35 AM 62.4 °F - 59.5 °F 90% 29.90 in 10.0 mi SSE 6.9 mph - N/A   Clear
6:55 AM 62.6 °F - 59.7 °F 90% 29.90 in 10.0 mi SSE 5.8 mph - N/A   Clear
7:15 AM 62.6 °F - 59.7 °F 90% 29.91 in 10.0 mi SSE 4.6 mph - N/A   Clear
7:35 AM 62.6 °F - 59.9 °F 91% 29.92 in 10.0 mi SSE 4.6 mph - N/A   Clear
7:55 AM 63.0 °F - 60.1 °F 90% 29.91 in 10.0 mi SSE 4.6 mph - N/A   Clear
8:15 AM 64.0 °F - 60.8 °F 89% 29.92 in 10.0 mi South 5.8 mph - N/A   Scattered Clouds
8:35 AM 65.8 °F - 61.9 °F 87% 29.92 in 10.0 mi SSE 9.2 mph - N/A   Scattered Clouds
8:55 AM 67.1 °F - 62.6 °F 85% 29.92 in 10.0 mi SSE 6.9 mph - N/A   Clear
9:15 AM 68.7 °F - 63.1 °F 82% 29.92 in 10.0 mi SSE 6.9 mph - N/A   Clear
9:35 AM 70.0 °F - 63.9 °F 81% 29.92 in 10.0 mi SSE 6.9 mph - N/A   Scattered Clouds
9:55 AM 71.6 °F - 64.6 °F 78% 29.92 in 10.0 mi SSE 10.4 mph 19.6 mph N/A   Scattered Clouds
10:15 AM 73.2 °F - 65.3 °F 76% 29.92 in 10.0 mi SSE 10.4 mph 18.4 mph N/A   Scattered Clouds
10:35 AM 74.7 °F - 65.7 °F 73% 29.90 in 10.0 mi SSE 11.5 mph 20.7 mph N/A   Scattered Clouds
10:55 AM 75.4 °F - 66.2 °F 73% 29.89 in 10.0 mi SSE 11.5 mph 18.4 mph N/A   Mostly Cloudy
11:15 AM 76.1 °F - 66.2 °F 71% 29.88 in 10.0 mi South 16.1 mph 23.0 mph N/A   Mostly Cloudy
11:35 AM 76.6 °F - 66.4 °F 70% 29.86 in 10.0 mi SSE 16.1 mph 20.7 mph N/A   Mostly Cloudy
11:55 AM 77.7 °F - 66.6 °F 68% 29.85 in 10.0 mi South 12.7 mph 21.9 mph N/A   Mostly Cloudy
12:15 PM 78.3 °F - 66.6 °F 67% 29.85 in 10.0 mi South 11.5 mph - N/A   Overcast
12:35 PM 78.4 °F - 66.4 °F 66% 29.84 in 10.0 mi South 17.3 mph 28.8 mph N/A   Mostly Cloudy
12:55 PM 78.1 °F - 66.4 °F 67% 29.84 in 10.0 mi South 13.8 mph 21.9 mph N/A   Overcast
1:15 PM 78.1 °F - 66.6 °F 68% 29.83 in 10.0 mi South 11.5 mph 19.6 mph N/A   Mostly Cloudy
1:35 PM 78.1 °F - 66.7 °F 68% 29.81 in 10.0 mi South 13.8 mph 20.7 mph N/A   Overcast
1:55 PM 79.5 °F - 66.9 °F 65% 29.80 in 10.0 mi South 12.7 mph 20.7 mph N/A   Mostly Cloudy
2:15 PM 80.4 °F 82.7 °F 66.9 °F 63% 29.80 in 10.0 mi South 15.0 mph 19.6 mph N/A   Mostly Cloudy
2:35 PM 80.8 °F 82.9 °F 66.2 °F 61% 29.79 in 10.0 mi South 13.8 mph 20.7 mph N/A   Mostly Cloudy
2:55 PM 80.4 °F 82.4 °F 65.8 °F 61% 29.79 in 10.0 mi South 12.7 mph 21.9 mph N/A   Mostly Cloudy
3:15 PM 79.9 °F - 66.2 °F 63% 29.79 in 10.0 mi South 12.7 mph 19.6 mph N/A   Overcast
3:35 PM 79.2 °F - 66.6 °F 65% 29.79 in 10.0 mi South 13.8 mph 20.7 mph N/A   Overcast
3:55 PM 79.9 °F - 66.4 °F 63% 29.78 in 10.0 mi South 11.5 mph 20.7 mph N/A   Mostly Cloudy
4:15 PM 78.8 °F - 66.6 °F 66% 29.78 in 10.0 mi South 16.1 mph 26.5 mph N/A   Scattered Clouds
4:35 PM 77.5 °F - 66.6 °F 69% 29.79 in 10.0 mi South 13.8 mph 17.3 mph N/A   Mostly Cloudy
4:55 PM 76.8 °F - 66.9 °F 71% 29.78 in 10.0 mi South 10.4 mph - N/A Rain Rain
5:15 PM 74.8 °F - 67.6 °F 78% 29.78 in 10.0 mi South 10.4 mph 18.4 mph N/A   Mostly Cloudy
5:35 PM 73.4 °F - 68.2 °F 84% 29.78 in 10.0 mi South 9.2 mph - N/A   Overcast
5:55 PM 73.6 °F - 68.2 °F 83% 29.77 in 10.0 mi SSE 8.1 mph 17.3 mph N/A   Mostly Cloudy
6:15 PM 73.6 °F - 68.4 °F 84% 29.77 in 10.0 mi South 8.1 mph 17.3 mph N/A   Mostly Cloudy
6:35 PM 73.0 °F - 68.5 °F 86% 29.77 in 10.0 mi South 9.2 mph 20.7 mph N/A   Mostly Cloudy
6:55 PM 72.9 °F - 68.7 °F 87% 29.77 in 10.0 mi South 9.2 mph - N/A   Overcast
7:15 PM 73.2 °F - 68.9 °F 86% 29.77 in 10.0 mi SSE 9.2 mph 19.6 mph N/A   Overcast
7:35 PM 73.4 °F - 68.9 °F 86% 29.79 in 10.0 mi South 11.5 mph 17.3 mph N/A   Overcast
7:55 PM 73.4 °F - 68.9 °F 86% 29.78 in 10.0 mi South 9.2 mph - N/A   Overcast
8:15 PM 73.6 °F - 69.1 °F 86% 29.78 in 10.0 mi South 11.5 mph 18.4 mph N/A   Overcast
8:35 PM 73.9 °F - 69.1 °F 85% 29.77 in 10.0 mi South 9.2 mph 16.1 mph N/A   Overcast
8:55 PM 73.9 °F - 69.3 °F 85% 29.77 in 10.0 mi South 13.8 mph 18.4 mph N/A   Overcast
9:15 PM 74.1 °F - 69.4 °F 85% 29.77 in 10.0 mi South 16.1 mph 21.9 mph N/A   Overcast
9:35 PM 74.5 °F - 69.4 °F 84% 29.77 in 10.0 mi South 15.0 mph 23.0 mph N/A   Overcast
9:55 PM 74.7 °F - 69.3 °F 83% 29.77 in 10.0 mi South 17.3 mph 25.3 mph N/A   Overcast
10:15 PM 74.8 °F - 69.1 °F 82% 29.78 in 10.0 mi SSW 11.5 mph 20.7 mph N/A   Overcast
10:35 PM 74.8 °F - 69.1 °F 82% 29.79 in 10.0 mi SSW 10.4 mph 17.3 mph N/A   Overcast
10:55 PM 74.8 °F - 69.1 °F 82% 29.79 in 10.0 mi SSW 12.7 mph 17.3 mph N/A   Overcast
11:15 PM 74.7 °F - 68.9 °F 82% 29.77 in 10.0 mi South 13.8 mph 23.0 mph N/A   Overcast
11:35 PM 74.3 °F - 68.9 °F 83% 29.77 in 10.0 mi SSW 13.8 mph 20.7 mph N/A   Scattered Clouds
11:55 PM 73.8 °F - 68.9 °F 85% 29.77 in 10.0 mi South 11.5 mph 18.4 mph N/A   Mostly Cloudy